TimeEST,TemperatureF,Dew PointF,Humidity,Sea Level PressureIn,VisibilityMPH,Wind Direction,Wind SpeedMPH,Gust SpeedMPH,PrecipitationIn,Events,Conditions,WindDirDegrees,DateUTC
12:00 AM,37.4,26.6,65,30.10,10.0,SE,4.6,-,N/A,,Mostly Cloudy,130,2004-01-13 05:00:00
12:20 AM,37.4,26.6,65,30.11,10.0,South,4.6,-,N/A,,Overcast,180,2004-01-13 05:20:00
12:40 AM,37.4,26.6,65,30.10,10.0,ESE,4.6,-,N/A,,Overcast,110,2004-01-13 05:40:00
1:00 AM,37.4,28.4,70,30.11,10.0,ESE,4.6,-,N/A,,Overcast,110,2004-01-13 06:00:00
1:20 AM,37.4,28.4,70,30.10,10.0,SE,3.5,-,N/A,,Overcast,140,2004-01-13 06:20:00
1:40 AM,37.4,28.4,70,30.10,10.0,West,13.8,26.5,N/A,,Overcast,260,2004-01-13 06:40:00
2:02 AM,37.4,28.4,70,30.11,10.0,WSW,8.1,39.1,N/A,,Overcast,250,2004-01-13 07:02:00
2:21 AM,37.4,28.4,70,30.11,10.0,SE,4.6,-,N/A,,Overcast,130,2004-01-13 07:21:00
2:42 AM,37.4,28.4,70,30.11,10.0,WNW,11.5,23.0,N/A,,Overcast,300,2004-01-13 07:42:00
3:00 AM,37.4,28.4,70,30.11,10.0,Calm,Calm,-,N/A,,Overcast,0,2004-01-13 08:00:00
3:20 AM,37.4,28.4,70,30.11,10.0,West,10.4,27.6,N/A,,Overcast,270,2004-01-13 08:20:00
3:40 AM,37.4,28.4,70,30.10,10.0,NW,9.2,25.3,N/A,,Mostly Cloudy,320,2004-01-13 08:40:00
4:00 AM,37.4,28.4,70,30.09,10.0,WNW,9.2,20.7,N/A,,Mostly Cloudy,290,2004-01-13 09:00:00
4:20 AM,35.6,26.6,70,30.08,10.0,West,13.8,24.2,N/A,,Scattered Clouds,270,2004-01-13 09:20:00
4:40 AM,35.6,26.6,70,30.07,10.0,WNW,10.4,43.7,N/A,,Scattered Clouds,290,2004-01-13 09:40:00
5:00 AM,35.6,26.6,70,30.07,10.0,West,8.1,33.4,N/A,,Clear,260,2004-01-13 10:00:00
5:20 AM,35.6,24.8,65,30.06,10.0,WNW,16.1,33.4,N/A,,Clear,300,2004-01-13 10:20:00
5:40 AM,35.6,24.8,65,30.07,10.0,WNW,13.8,28.8,N/A,,Clear,290,2004-01-13 10:40:00
6:00 AM,35.6,24.8,65,30.08,10.0,WNW,13.8,24.2,N/A,,Clear,300,2004-01-13 11:00:00
6:40 AM,35.6,23.0,60,30.08,10.0,WNW,10.4,29.9,N/A,,Clear,290,2004-01-13 11:40:00
7:00 AM,35.6,21.2,56,30.09,10.0,West,8.1,34.5,N/A,,Clear,260,2004-01-13 12:00:00
7:20 AM,35.6,21.2,56,30.08,10.0,WNW,21.9,35.7,N/A,,Clear,290,2004-01-13 12:20:00
7:40 AM,35.6,21.2,56,30.08,10.0,NW,18.4,27.6,N/A,,Clear,310,2004-01-13 12:40:00
8:00 AM,35.6,21.2,56,30.08,10.0,WNW,16.1,35.7,N/A,,Clear,300,2004-01-13 13:00:00
8:20 AM,35.6,21.2,56,30.08,10.0,WNW,17.3,41.4,N/A,,Clear,300,2004-01-13 13:20:00
8:42 AM,35.6,21.2,56,30.09,10.0,WNW,23.0,34.5,N/A,,Clear,300,2004-01-13 13:42:00
9:00 AM,37.4,21.2,52,30.08,10.0,WNW,25.3,40.3,N/A,,Clear,290,2004-01-13 14:00:00
9:20 AM,37.4,19.4,48,30.08,10.0,NW,20.7,35.7,N/A,,Clear,310,2004-01-13 14:20:00
9:40 AM,37.4,19.4,48,30.09,10.0,WNW,23.0,39.1,N/A,,Clear,300,2004-01-13 14:40:00
10:02 AM,39.2,19.4,45,30.09,10.0,WNW,20.7,41.4,N/A,,Clear,300,2004-01-13 15:02:00
10:20 AM,39.2,19.4,45,30.09,10.0,WNW,25.3,42.6,N/A,,Clear,290,2004-01-13 15:20:00
10:40 AM,42.8,17.6,36,30.07,10.0,WNW,27.6,47.2,N/A,,Clear,290,2004-01-13 15:40:00
11:00 AM,42.8,15.8,34,30.07,10.0,WNW,26.5,47.2,N/A,,Clear,290,2004-01-13 16:00:00
11:22 AM,44.6,15.8,31,30.06,10.0,WNW,28.8,40.3,N/A,,Clear,300,2004-01-13 16:22:00
11:40 AM,44.6,15.8,31,30.05,10.0,WNW,24.2,46.0,N/A,,Clear,290,2004-01-13 16:40:00
12:00 PM,44.6,15.8,31,30.04,10.0,WNW,28.8,44.9,N/A,,Clear,290,2004-01-13 17:00:00
12:20 PM,44.6,15.8,31,30.02,10.0,West,31.1,52.9,N/A,,Clear,280,2004-01-13 17:20:00
12:40 PM,46.4,15.8,29,30.00,10.0,WNW,32.2,47.2,N/A,,Clear,300,2004-01-13 17:40:00
1:00 PM,48.2,15.8,27,30.00,10.0,WNW,28.8,50.6,N/A,,Clear,300,2004-01-13 18:00:00
1:22 PM,46.4,15.8,29,29.99,10.0,WNW,35.7,52.9,N/A,,Clear,300,2004-01-13 18:22:00
1:40 PM,46.4,15.8,29,29.99,10.0,WNW,26.5,51.8,N/A,,Clear,300,2004-01-13 18:40:00
2:00 PM,46.4,15.8,29,29.99,10.0,WNW,34.5,44.9,N/A,,Clear,290,2004-01-13 19:00:00
2:20 PM,44.6,15.8,31,29.98,10.0,WNW,29.9,46.0,N/A,,Clear,300,2004-01-13 19:20:00
2:42 PM,44.6,15.8,31,29.98,10.0,WNW,35.7,51.8,N/A,,Clear,300,2004-01-13 19:42:00
3:00 PM,44.6,15.8,31,29.99,10.0,WNW,31.1,46.0,N/A,,Clear,290,2004-01-13 20:00:00
3:20 PM,44.6,17.6,34,29.98,10.0,WNW,32.2,51.8,N/A,,Clear,300,2004-01-13 20:20:00
3:40 PM,44.6,19.4,37,29.98,10.0,West,34.5,47.2,N/A,,Clear,280,2004-01-13 20:40:00
4:00 PM,42.8,19.4,39,29.99,10.0,West,25.3,44.9,N/A,,Clear,280,2004-01-13 21:00:00
4:20 PM,42.8,21.2,42,29.99,10.0,WNW,27.6,44.9,N/A,,Clear,290,2004-01-13 21:20:00
4:40 PM,42.8,21.2,42,29.99,10.0,WNW,23.0,50.6,N/A,,Clear,300,2004-01-13 21:40:00
5:02 PM,41.0,21.2,45,29.99,10.0,WNW,27.6,47.2,N/A,,Clear,290,2004-01-13 22:02:00
5:20 PM,41.0,21.2,45,30.00,10.0,West,26.5,46.0,N/A,,Clear,280,2004-01-13 22:20:00
5:40 PM,41.0,23.0,49,30.01,10.0,WNW,19.6,43.7,N/A,,Clear,300,2004-01-13 22:40:00
6:00 PM,39.2,24.8,56,30.01,10.0,WNW,24.2,35.7,N/A,,Clear,290,2004-01-13 23:00:00
6:24 PM,39.2,24.8,56,30.03,10.0,WNW,23.0,42.6,N/A,,Clear,300,2004-01-13 23:24:00
6:40 PM,39.2,24.8,56,30.03,10.0,WNW,19.6,34.5,N/A,,Clear,290,2004-01-13 23:40:00
7:01 PM,39.2,24.8,56,30.02,10.0,WNW,26.5,38.0,N/A,,Clear,290,2004-01-14 00:01:00
7:20 PM,39.2,24.8,56,30.04,10.0,WNW,19.6,32.2,N/A,,Clear,300,2004-01-14 00:20:00
7:40 PM,39.2,24.8,56,30.03,10.0,West,23.0,38.0,N/A,,Clear,280,2004-01-14 00:40:00
8:00 PM,39.2,23.0,52,30.04,10.0,NW,15.0,33.4,N/A,,Clear,310,2004-01-14 01:00:00
8:20 PM,39.2,24.8,56,30.04,10.0,NW,21.9,32.2,N/A,,Clear,310,2004-01-14 01:20:00
8:40 PM,39.2,23.0,52,30.05,10.0,NW,15.0,43.7,N/A,,Clear,310,2004-01-14 01:40:00
9:00 PM,39.2,23.0,52,30.04,10.0,WNW,20.7,35.7,N/A,,Clear,300,2004-01-14 02:00:00
9:20 PM,39.2,23.0,52,30.03,10.0,WNW,20.7,36.8,N/A,,Clear,300,2004-01-14 02:20:00
9:40 PM,39.2,21.2,49,30.02,10.0,WNW,27.6,44.9,N/A,,Clear,300,2004-01-14 02:40:00
10:00 PM,37.4,21.2,52,30.01,10.0,NW,25.3,46.0,N/A,,Clear,310,2004-01-14 03:00:00
10:20 PM,37.4,21.2,52,30.02,10.0,NW,28.8,39.1,N/A,,Clear,310,2004-01-14 03:20:00
10:40 PM,37.4,21.2,52,30.03,10.0,NW,19.6,40.3,N/A,,Clear,310,2004-01-14 03:40:00
11:00 PM,37.4,23.0,56,30.02,10.0,NW,25.3,36.8,N/A,,Clear,310,2004-01-14 04:00:00
11:20 PM,37.4,24.8,60,30.03,10.0,NW,16.1,42.6,N/A,,Clear,320,2004-01-14 04:20:00
11:40 PM,35.6,24.8,65,30.04,10.0,NW,16.1,41.4,N/A,,Clear,310,2004-01-14 04:40:00